Middletown, OH

5:09 AM EDT on October 22, 2017 (GMT -0400)
Hook Field Municipal

Weather History for KMWO - March, 2013

Change the Weather History Date:

Thursday, March 21, 2013

  Actual Average (KFFO) Record (KFFO)
Temperature  
Mean Temperature 26 °F -  
Max Temperature 32 °F 50 °F 85 °F (2012)
Min Temperature 19 °F 29 °F 15 °F (2002)
Degree Days  
Heating Degree Days 40    
Moisture  
Dew Point 18 °F    
Average Humidity 70    
Maximum Humidity 92    
Minimum Humidity 53    
Precipitation  
Precipitation 0.00 in - - ()
Sea Level Pressure  
Sea Level Pressure 30.01 in    
Wind  
Wind Speed 6 mph (WNW)    
Max Wind Speed 13 mph    
Max Gust Speed 20 mph    
Visibility 9 miles    
Events Snow    
Averages and records for this station are not official NWS values.
T = Trace of Precipitation, MM = Missing Value Source: NWS Daily Summary

Daily Weather History Graph

Daily Weather History Graph

Search for Another Location

Airport or City:

Trip Planner

Search our weather history database for the weather conditions in past years. The results will help you decide how hot, cold, wet, or windy it might be!

Date:

Astronomy

Mar. 21, 2013 Rise Set
Actual Time 7:39 AM EDT 7:50 PM EDT
Civil Twilight 7:12 AM EDT 8:17 PM EDT
Nautical Twilight 6:40 AM EDT 8:49 PM EDT
Astronomical Twilight 6:08 AM EDT 9:21 PM EDT
Moon 2:21 PM EDT (3/21) 3:59 AM EDT (3/21)
Length of Visible Light 13h 05m
Length of Day
12h 11m
Waxing Gibbous, 68% of the Moon is Illuminated
Mar 21
Waxing Gibbous
Mar 27
Full
Apr 3
Last Quarter
Apr 10
New
Apr 18
First Quarter

Hourly Weather History & Observations

Time (EDT) Temp. Windchill Dew Point Humidity Pressure Visibility Wind Dir Wind Speed Gust Speed Precip Events Conditions
12:15 AM 25.3 °F - 15.3 °F 66% 30.01 in 10.0 mi Calm Calm - N/A   Overcast
12:35 AM 25.3 °F 21.1 °F 15.3 °F 66% 30.01 in 10.0 mi WNW 3.5 mph - N/A   Mostly Cloudy
12:55 AM 25.3 °F 18.5 °F 14.5 °F 64% 30.01 in 10.0 mi WNW 5.8 mph - N/A   Mostly Cloudy
1:15 AM 25.3 °F 14.7 °F 15.1 °F 65% 30.01 in 10.0 mi NNW 11.5 mph - N/A   Overcast
1:35 AM 25.3 °F 14.7 °F 15.6 °F 67% 30.00 in 10.0 mi WNW 11.5 mph 16.1 mph N/A   Overcast
2:15 AM 24.1 °F 13.7 °F 17.4 °F 76% 30.00 in 10.0 mi WNW 10.4 mph 17.3 mph N/A   Overcast
2:35 AM 25.3 °F 15.3 °F 17.1 °F 71% 30.00 in 10.0 mi WNW 10.4 mph - N/A   Overcast
2:55 AM 23.9 °F 15.0 °F 16.5 °F 73% 30.00 in 10.0 mi WNW 8.1 mph - N/A   Overcast
3:15 AM 23.9 °F 15.8 °F 16.7 °F 74% 29.99 in 10.0 mi NW 6.9 mph - N/A Snow Light Snow
3:35 AM 22.8 °F 13.6 °F 16.5 °F 77% 29.99 in 10.0 mi WNW 8.1 mph - N/A   Overcast
3:55 AM 22.8 °F 13.6 °F 18.0 °F 82% 29.98 in 10.0 mi West 8.1 mph - N/A Snow Light Snow
4:15 AM 22.8 °F 14.5 °F 18.0 °F 82% 29.98 in 10.0 mi West 6.9 mph - N/A   Overcast
4:35 AM 22.8 °F 15.5 °F 18.3 °F 83% 29.97 in 10.0 mi West 5.8 mph - N/A   Overcast
4:55 AM 22.8 °F 15.5 °F 18.1 °F 82% 29.97 in 10.0 mi West 5.8 mph - N/A   Overcast
5:15 AM 21.2 °F 11.7 °F 18.3 °F 89% 29.97 in 1.8 mi NW 8.1 mph - N/A Snow Light Snow
5:35 AM 20.5 °F 15.6 °F 18.5 °F 92% 29.96 in 7.0 mi WNW 3.5 mph - N/A   Overcast
5:55 AM 20.7 °F 15.8 °F 18.0 °F 89% 29.96 in 7.0 mi WNW 3.5 mph - N/A   Overcast
6:15 AM 20.3 °F 12.5 °F 17.6 °F 89% 29.97 in 5.0 mi WNW 5.8 mph - N/A   Overcast
6:35 AM 20.3 °F 12.5 °F 17.6 °F 89% 29.97 in 5.0 mi WNW 5.8 mph - N/A Snow Light Snow
6:55 AM 19.0 °F 12.3 °F 16.2 °F 89% 29.97 in 10.0 mi WNW 4.6 mph - N/A   Overcast
7:15 AM 19.0 °F 13.9 °F 16.2 °F 89% 29.98 in 10.0 mi WNW 3.5 mph - N/A   Overcast
7:35 AM 20.3 °F 12.5 °F 18.3 °F 92% 29.98 in 3.0 mi NW 5.8 mph - N/A Snow Light Snow
7:55 AM 20.3 °F 15.4 °F 17.1 °F 87% 29.98 in 10.0 mi NW 3.5 mph - N/A   Overcast
8:15 AM 20.3 °F 11.5 °F 16.5 °F 85% 29.98 in 10.0 mi NNW 6.9 mph - N/A   Overcast
8:35 AM 20.3 °F 11.5 °F 16.7 °F 86% 29.99 in 4.0 mi NNW 6.9 mph - N/A Snow Light Snow
8:55 AM 20.3 °F 13.8 °F 18.1 °F 91% 30.00 in 1.5 mi NNW 4.6 mph - N/A Snow Light Snow
9:15 AM 20.3 °F 10.6 °F 17.1 °F 87% 30.00 in 2.5 mi NNW 8.1 mph - N/A Snow Light Snow
9:35 AM 21.4 °F 9.7 °F 16.9 °F 83% 30.01 in 10.0 mi NW 11.5 mph - N/A   Scattered Clouds
9:55 AM 21.4 °F 9.1 °F 15.8 °F 79% 30.02 in 10.0 mi NNW 12.7 mph 17.3 mph N/A   Scattered Clouds
10:15 AM 21.6 °F 9.9 °F 14.5 °F 74% 30.02 in 10.0 mi NNW 11.5 mph 17.3 mph N/A   Mostly Cloudy
10:35 AM 23.0 °F 12.4 °F 14.0 °F 68% 30.02 in 10.0 mi WNW 10.4 mph 16.1 mph N/A   Scattered Clouds
10:55 AM 25.3 °F 18.5 °F 16.5 °F 69% 30.02 in 10.0 mi West 5.8 mph - N/A   Scattered Clouds
11:15 AM 25.3 °F 16.0 °F 17.1 °F 71% 30.03 in 10.0 mi West 9.2 mph - N/A   Mostly Cloudy
11:35 AM 26.8 °F 16.5 °F 17.8 °F 69% 30.03 in 10.0 mi West 11.5 mph 16.1 mph N/A   Mostly Cloudy
11:55 AM 25.3 °F 16.0 °F 15.8 °F 67% 30.03 in 10.0 mi NNW 9.2 mph - N/A   Overcast
12:15 PM 27.7 °F 20.4 °F 17.8 °F 66% 30.03 in 10.0 mi North 6.9 mph - N/A   Mostly Cloudy
12:35 PM 27.9 °F 21.5 °F 17.2 °F 64% 30.03 in 10.0 mi North 5.8 mph - N/A   Mostly Cloudy
12:55 PM 27.9 °F 24.0 °F 16.0 °F 61% 30.03 in 10.0 mi WNW 3.5 mph - N/A   Overcast
1:15 PM 27.9 °F 19.1 °F 16.0 °F 61% 30.04 in 10.0 mi WNW 9.2 mph - N/A   Overcast
1:35 PM 28.4 °F 20.4 °F 16.5 °F 61% 30.03 in 10.0 mi WNW 8.1 mph 18.4 mph N/A   Overcast
1:55 PM 28.4 °F 19.1 °F 16.0 °F 60% 30.03 in 10.0 mi NW 10.4 mph - N/A   Overcast
2:15 PM 29.7 °F 22.0 °F 17.1 °F 59% 30.03 in 10.0 mi NW 8.1 mph 16.1 mph N/A   Overcast
2:35 PM 29.8 °F 21.5 °F 16.2 °F 57% 30.03 in 10.0 mi NNW 9.2 mph - N/A   Overcast
2:55 PM 30.2 °F 20.8 °F 16.0 °F 56% 30.02 in 10.0 mi West 11.5 mph 17.3 mph N/A   Overcast
3:15 PM 32.5 °F 23.2 °F 17.8 °F 55% 30.02 in 10.0 mi NW 12.7 mph 19.6 mph N/A   Overcast
3:35 PM 32.5 °F 24.8 °F 17.1 °F 53% 30.01 in 10.0 mi WNW 9.2 mph 18.4 mph N/A   Overcast
3:55 PM 32.5 °F 23.2 °F 17.8 °F 55% 30.01 in 10.0 mi NW 12.7 mph 17.3 mph N/A   Overcast
4:15 PM 32.5 °F 24.2 °F 18.1 °F 55% 30.01 in 10.0 mi NW 10.4 mph - N/A   Mostly Cloudy
4:35 PM 32.5 °F 23.2 °F 17.6 °F 54% 30.01 in 10.0 mi West 12.7 mph 17.3 mph N/A   Mostly Cloudy
4:55 PM 32.5 °F 25.5 °F 17.4 °F 54% 30.01 in 10.0 mi West 8.1 mph 19.6 mph N/A   Overcast
5:15 PM 32.5 °F 26.2 °F 17.8 °F 55% 30.01 in 10.0 mi NW 6.9 mph - N/A   Overcast
5:35 PM 32.5 °F 25.5 °F 18.5 °F 56% 30.02 in 10.0 mi West 8.1 mph - N/A   Overcast
5:55 PM 32.5 °F 24.8 °F 18.7 °F 57% 30.02 in 10.0 mi NW 9.2 mph - N/A   Overcast
6:15 PM 32.5 °F 27.1 °F 18.9 °F 57% 30.02 in 10.0 mi WNW 5.8 mph - N/A   Overcast
6:35 PM 32.5 °F 26.2 °F 19.6 °F 59% 30.02 in 10.0 mi WNW 6.9 mph - N/A   Overcast
6:55 PM 32.5 °F 25.5 °F 19.9 °F 60% 30.02 in 10.0 mi WNW 8.1 mph - N/A   Overcast
7:15 PM 32.5 °F 27.1 °F 20.1 °F 60% 30.02 in 10.0 mi WNW 5.8 mph - N/A   Overcast
7:35 PM 30.4 °F 26.9 °F 18.3 °F 61% 30.02 in 10.0 mi WNW 3.5 mph - N/A   Overcast
7:55 PM 30.2 °F 26.7 °F 19.2 °F 64% 30.02 in 10.0 mi WNW 3.5 mph - N/A   Overcast
8:15 PM 30.2 °F - 18.3 °F 61% 30.02 in 10.0 mi Calm Calm - N/A   Mostly Cloudy
8:35 PM 30.2 °F - 18.9 °F 63% 30.02 in 10.0 mi Calm Calm - N/A   Mostly Cloudy
8:55 PM 28.9 °F 25.2 °F 17.8 °F 63% 30.03 in 10.0 mi WSW 3.5 mph - N/A   Mostly Cloudy
9:15 PM 29.1 °F 25.4 °F 18.3 °F 64% 30.03 in 10.0 mi WSW 3.5 mph - N/A   Overcast
9:35 PM 27.9 °F 24.0 °F 19.9 °F 72% 30.03 in 10.0 mi WSW 3.5 mph - N/A   Overcast
9:55 PM 27.9 °F 24.0 °F 19.4 °F 71% 30.03 in 10.0 mi WSW 3.5 mph - N/A   Overcast
10:15 PM 27.9 °F 24.0 °F 22.5 °F 80% 30.04 in 10.0 mi WSW 3.5 mph - N/A   Overcast
10:35 PM 27.9 °F 22.6 °F 20.1 °F 73% 30.04 in 10.0 mi WSW 4.6 mph - N/A   Overcast
10:55 PM 27.9 °F 24.0 °F 20.1 °F 73% 30.05 in 10.0 mi WSW 3.5 mph - N/A   Overcast
11:15 PM 27.9 °F 22.6 °F 20.5 °F 74% 30.04 in 10.0 mi WSW 4.6 mph - N/A   Mostly Cloudy
11:35 PM 27.9 °F 21.5 °F 20.3 °F 73% 30.04 in 10.0 mi WSW 5.8 mph - N/A   Scattered Clouds
11:55 PM 26.8 °F 20.2 °F 19.8 °F 75% 30.04 in 10.0 mi SW 5.8 mph - N/A   Clear